Year,Month,Day,Hour,Minute,Value (Times are PST for temperature in C)
2014,08,11,00,00,25.30
2014,08,11,00,01,25.30
2014,08,11,00,02,25.30
2014,08,11,00,03,25.20
2014,08,11,00,04,25.20
2014,08,11,00,05,25.20
2014,08,11,00,06,25.20
2014,08,11,00,07,25.10
2014,08,11,00,08,25.10
2014,08,11,00,09,25.10
2014,08,11,00,10,25.00
2014,08,11,00,11,25.00
2014,08,11,00,12,24.90
2014,08,11,00,13,24.90
2014,08,11,00,14,24.90
2014,08,11,00,15,24.90
2014,08,11,00,16,24.80
2014,08,11,00,17,24.80
2014,08,11,00,18,24.80
2014,08,11,00,19,24.90
2014,08,11,00,20,24.80
2014,08,11,00,21,24.80
2014,08,11,00,22,24.80
2014,08,11,00,23,24.80
2014,08,11,00,24,24.80
2014,08,11,00,25,24.80
2014,08,11,00,26,24.80
2014,08,11,00,27,24.80
2014,08,11,00,28,24.80
2014,08,11,00,29,24.90
2014,08,11,00,30,24.90
2014,08,11,00,31,24.80
2014,08,11,00,32,24.80
2014,08,11,00,33,24.80
2014,08,11,00,34,24.80
2014,08,11,00,35,24.80
2014,08,11,00,36,24.80
2014,08,11,00,37,24.70
2014,08,11,00,38,24.70
2014,08,11,00,39,24.70
2014,08,11,00,40,24.70
2014,08,11,00,41,24.70
2014,08,11,00,42,24.60
2014,08,11,00,43,24.60
2014,08,11,00,44,24.60
2014,08,11,00,45,24.50
2014,08,11,00,46,24.50
2014,08,11,00,47,24.40
2014,08,11,00,48,24.40
2014,08,11,00,49,24.50
2014,08,11,00,50,24.50
2014,08,11,00,51,24.50
2014,08,11,00,52,24.60
2014,08,11,00,53,24.50
2014,08,11,00,54,24.50
2014,08,11,00,55,24.50
2014,08,11,00,56,24.50
2014,08,11,00,57,24.50
2014,08,11,00,58,24.60
2014,08,11,00,59,24.60
2014,08,11,01,00,24.60
2014,08,11,01,01,24.50
2014,08,11,01,02,24.50
2014,08,11,01,03,24.50
2014,08,11,01,04,24.40
2014,08,11,01,05,24.40
2014,08,11,01,06,24.40
2014,08,11,01,07,24.40
2014,08,11,01,08,24.40
2014,08,11,01,09,24.30
2014,08,11,01,10,24.30
2014,08,11,01,11,24.30
2014,08,11,01,12,24.30
2014,08,11,01,13,24.30
2014,08,11,01,14,24.30
2014,08,11,01,15,24.30
2014,08,11,01,16,24.30
2014,08,11,01,17,24.30
2014,08,11,01,18,24.30
2014,08,11,01,19,24.30
2014,08,11,01,20,24.30
2014,08,11,01,21,24.30
2014,08,11,01,22,24.30
2014,08,11,01,23,24.30
2014,08,11,01,24,24.30
2014,08,11,01,25,24.30
2014,08,11,01,26,24.30
2014,08,11,01,27,24.20
2014,08,11,01,28,24.20
2014,08,11,01,29,24.20
2014,08,11,01,30,24.20
2014,08,11,01,31,24.10
2014,08,11,01,32,24.10
2014,08,11,01,33,24.10
2014,08,11,01,34,24.10
2014,08,11,01,35,24.10
2014,08,11,01,36,24.00
2014,08,11,01,37,24.10
2014,08,11,01,38,24.10
2014,08,11,01,39,24.10
2014,08,11,01,40,24.10
2014,08,11,01,41,24.10
2014,08,11,01,42,24.10
2014,08,11,01,43,24.00
2014,08,11,01,44,24.00
2014,08,11,01,45,24.10
2014,08,11,01,46,24.10
2014,08,11,01,47,24.10
2014,08,11,01,48,24.10
2014,08,11,01,49,24.00
2014,08,11,01,50,24.00
2014,08,11,01,51,23.90
2014,08,11,01,52,23.90
2014,08,11,01,53,23.80
2014,08,11,01,54,23.80
2014,08,11,01,55,23.80
2014,08,11,01,56,23.80
2014,08,11,01,57,23.80
2014,08,11,01,58,23.80
2014,08,11,01,59,23.80
2014,08,11,02,00,23.80
2014,08,11,02,01,23.70
2014,08,11,02,02,23.70
2014,08,11,02,03,23.70
2014,08,11,02,04,23.70
2014,08,11,02,05,23.70
2014,08,11,02,06,23.70
2014,08,11,02,07,23.70
2014,08,11,02,08,23.70
2014,08,11,02,09,23.70
2014,08,11,02,10,23.60
2014,08,11,02,11,23.60
2014,08,11,02,12,23.60
2014,08,11,02,13,23.60
2014,08,11,02,14,23.60
2014,08,11,02,15,23.60
2014,08,11,02,16,23.60
2014,08,11,02,17,23.50
2014,08,11,02,18,23.50
2014,08,11,02,19,23.50
2014,08,11,02,20,23.40
2014,08,11,02,21,23.40
2014,08,11,02,22,23.40
2014,08,11,02,23,23.40
2014,08,11,02,24,23.40
2014,08,11,02,25,23.40
2014,08,11,02,26,23.40
2014,08,11,02,27,23.40
2014,08,11,02,28,23.40
2014,08,11,02,29,23.40
2014,08,11,02,30,23.40
2014,08,11,02,31,23.30
2014,08,11,02,32,23.30
2014,08,11,02,33,23.30
2014,08,11,02,34,23.30
2014,08,11,02,35,23.30
2014,08,11,02,36,23.30
2014,08,11,02,37,23.30
2014,08,11,02,38,23.30
2014,08,11,02,39,23.30
2014,08,11,02,40,23.30
2014,08,11,02,41,23.30
2014,08,11,02,42,23.30
2014,08,11,02,43,23.20
2014,08,11,02,44,23.20
2014,08,11,02,45,23.20
2014,08,11,02,46,23.20
2014,08,11,02,47,23.20
2014,08,11,02,48,23.20
2014,08,11,02,49,23.10
2014,08,11,02,50,23.10
2014,08,11,02,51,23.10
2014,08,11,02,52,23.10
2014,08,11,02,53,23.10
2014,08,11,02,54,23.10
2014,08,11,02,55,23.10
2014,08,11,02,56,23.10
2014,08,11,02,57,23.10
2014,08,11,02,58,23.00
2014,08,11,02,59,23.00
2014,08,11,03,00,22.90
2014,08,11,03,01,22.90
2014,08,11,03,02,22.90
2014,08,11,03,03,22.90
2014,08,11,03,04,22.80
2014,08,11,03,05,22.80
2014,08,11,03,06,22.80
2014,08,11,03,07,22.70
2014,08,11,03,08,22.70
2014,08,11,03,09,22.70
2014,08,11,03,10,22.60
2014,08,11,03,11,22.60
2014,08,11,03,12,22.60
2014,08,11,03,13,22.50
2014,08,11,03,14,22.50
2014,08,11,03,15,22.40
2014,08,11,03,16,22.40
2014,08,11,03,17,22.40
2014,08,11,03,18,22.40
2014,08,11,03,19,22.40
2014,08,11,03,20,22.30
2014,08,11,03,21,22.30
2014,08,11,03,22,22.30
2014,08,11,03,23,22.30
2014,08,11,03,24,22.30
2014,08,11,03,25,22.30
2014,08,11,03,26,22.30
2014,08,11,03,27,22.30
2014,08,11,03,28,22.30
2014,08,11,03,29,22.30
2014,08,11,03,30,22.20
2014,08,11,03,31,22.20
2014,08,11,03,32,22.20
2014,08,11,03,33,22.20
2014,08,11,03,34,22.20
2014,08,11,03,35,22.20
2014,08,11,03,36,22.20
2014,08,11,03,37,22.10
2014,08,11,03,38,22.10
2014,08,11,03,39,22.10
2014,08,11,03,40,22.10
2014,08,11,03,41,22.10
2014,08,11,03,42,22.10
2014,08,11,03,43,22.10
2014,08,11,03,44,22.10
2014,08,11,03,45,22.10
2014,08,11,03,46,22.10
2014,08,11,03,47,22.00
2014,08,11,03,48,22.00
2014,08,11,03,49,22.00
2014,08,11,03,50,22.00
2014,08,11,03,51,21.90
2014,08,11,03,52,21.90
2014,08,11,03,53,21.90
2014,08,11,03,54,21.90
2014,08,11,03,55,21.90
2014,08,11,03,56,21.80
2014,08,11,03,57,21.80
2014,08,11,03,58,21.80
2014,08,11,03,59,21.80
2014,08,11,04,00,21.80
2014,08,11,04,01,21.70
2014,08,11,04,02,21.70
2014,08,11,04,03,21.70
2014,08,11,04,04,21.70
2014,08,11,04,05,21.70
2014,08,11,04,06,21.70
2014,08,11,04,07,21.60
2014,08,11,04,08,21.60
2014,08,11,04,09,21.60
2014,08,11,04,10,21.50
2014,08,11,04,11,21.50
2014,08,11,04,12,21.50
2014,08,11,04,13,21.40
2014,08,11,04,14,21.40
2014,08,11,04,15,21.40
2014,08,11,04,16,21.40
2014,08,11,04,17,21.30
2014,08,11,04,18,21.30
2014,08,11,04,19,21.30
2014,08,11,04,20,21.20
2014,08,11,04,21,21.20
2014,08,11,04,22,21.10
2014,08,11,04,23,21.00
2014,08,11,04,24,21.00
2014,08,11,04,25,20.90
2014,08,11,04,26,20.80
2014,08,11,04,27,20.80
2014,08,11,04,28,20.80
2014,08,11,04,29,20.80
2014,08,11,04,30,20.80
2014,08,11,04,31,20.80
2014,08,11,04,32,20.80
2014,08,11,04,33,20.70
2014,08,11,04,34,20.70
2014,08,11,04,35,20.70
2014,08,11,04,36,20.70
2014,08,11,04,37,20.60
2014,08,11,04,38,20.60
2014,08,11,04,39,20.60
2014,08,11,04,40,20.50
2014,08,11,04,41,20.50
2014,08,11,04,42,20.50
2014,08,11,04,43,20.40
2014,08,11,04,44,20.40
2014,08,11,04,45,20.40
2014,08,11,04,46,20.40
2014,08,11,04,47,20.40
2014,08,11,04,48,20.30
2014,08,11,04,49,20.30
2014,08,11,04,50,20.30
2014,08,11,04,51,20.30
2014,08,11,04,52,20.30
2014,08,11,04,53,20.30
2014,08,11,04,54,20.30
2014,08,11,04,55,20.30
2014,08,11,04,56,20.30
2014,08,11,04,57,20.30
2014,08,11,04,58,20.30
2014,08,11,04,59,20.30
2014,08,11,05,00,20.30
2014,08,11,05,01,20.30
2014,08,11,05,02,20.30
2014,08,11,05,03,20.30
2014,08,11,05,04,20.30
2014,08,11,05,05,20.30
2014,08,11,05,06,20.30
2014,08,11,05,07,20.30
2014,08,11,05,08,20.20
2014,08,11,05,09,20.20
2014,08,11,05,10,20.20
2014,08,11,05,11,20.20
2014,08,11,05,12,20.20
2014,08,11,05,13,20.10
2014,08,11,05,14,20.10
2014,08,11,05,15,20.10
2014,08,11,05,16,20.10
2014,08,11,05,17,20.10
2014,08,11,05,18,20.10
2014,08,11,05,19,20.10
2014,08,11,05,20,20.10
2014,08,11,05,21,20.10
2014,08,11,05,22,20.00
2014,08,11,05,23,20.00
2014,08,11,05,24,20.00
2014,08,11,05,25,19.90
2014,08,11,05,26,19.90
2014,08,11,05,27,20.00
2014,08,11,05,28,20.00
2014,08,11,05,29,20.00
2014,08,11,05,30,20.00
2014,08,11,05,31,20.10
2014,08,11,05,32,20.10
2014,08,11,05,33,20.10
2014,08,11,05,34,20.10
2014,08,11,05,35,20.10
2014,08,11,05,36,20.00
2014,08,11,05,37,20.00
2014,08,11,05,38,20.00
2014,08,11,05,39,19.90
2014,08,11,05,40,19.90
2014,08,11,05,41,20.00
2014,08,11,05,42,20.00
2014,08,11,05,43,20.10
2014,08,11,05,44,20.10
2014,08,11,05,45,20.10
2014,08,11,05,46,20.10
2014,08,11,05,47,20.10
2014,08,11,05,48,20.10
2014,08,11,05,49,20.10
2014,08,11,05,50,20.10
2014,08,11,05,51,20.00
2014,08,11,05,52,20.00
2014,08,11,05,53,20.00
2014,08,11,05,54,20.00
2014,08,11,05,55,20.00
2014,08,11,05,56,20.00
2014,08,11,05,57,20.10
2014,08,11,05,58,20.10
2014,08,11,05,59,20.10
2014,08,11,06,00,20.10
2014,08,11,06,01,20.10
2014,08,11,06,02,20.10
2014,08,11,06,03,20.10
2014,08,11,06,04,20.10
2014,08,11,06,05,20.20
2014,08,11,06,06,20.20
2014,08,11,06,07,20.30
2014,08,11,06,08,20.30
2014,08,11,06,09,20.40
2014,08,11,06,10,20.40
2014,08,11,06,11,20.40
2014,08,11,06,12,20.50
2014,08,11,06,13,20.50
2014,08,11,06,14,20.60
2014,08,11,06,15,20.60
2014,08,11,06,16,20.60
2014,08,11,06,17,20.60
2014,08,11,06,18,20.60
2014,08,11,06,19,20.60
2014,08,11,06,20,20.60
2014,08,11,06,21,20.60
2014,08,11,06,22,20.60
2014,08,11,06,23,20.70
2014,08,11,06,24,20.70
2014,08,11,06,25,20.70
2014,08,11,06,26,20.60
2014,08,11,06,27,20.60
2014,08,11,06,28,20.60
2014,08,11,06,29,20.60
2014,08,11,06,30,20.50
2014,08,11,06,31,20.50
2014,08,11,06,32,20.40
2014,08,11,06,33,20.40
2014,08,11,06,34,20.40
2014,08,11,06,35,20.40
2014,08,11,06,36,20.30
2014,08,11,06,37,20.30
2014,08,11,06,38,20.30
2014,08,11,06,39,20.30
2014,08,11,06,40,20.30
2014,08,11,06,41,20.30
2014,08,11,06,42,20.30
2014,08,11,06,43,20.40
2014,08,11,06,44,20.40
2014,08,11,06,45,20.40
2014,08,11,06,46,20.40
2014,08,11,06,47,20.40
2014,08,11,06,48,20.40
2014,08,11,06,49,20.40
2014,08,11,06,50,20.40
2014,08,11,06,51,20.40
2014,08,11,06,52,20.30
2014,08,11,06,53,20.40
2014,08,11,06,54,20.30
2014,08,11,06,55,20.30
2014,08,11,06,56,20.30
2014,08,11,06,57,20.30
2014,08,11,06,58,20.30
2014,08,11,06,59,20.30
2014,08,11,07,00,20.30
2014,08,11,07,01,20.30
2014,08,11,07,02,20.30
2014,08,11,07,03,20.30
2014,08,11,07,04,20.40
2014,08,11,07,05,20.40
2014,08,11,07,06,20.40
2014,08,11,07,07,20.40
2014,08,11,07,08,20.40
2014,08,11,07,09,20.40
2014,08,11,07,10,20.50
2014,08,11,07,11,20.50
2014,08,11,07,12,20.60
2014,08,11,07,13,20.60
2014,08,11,07,14,20.60
2014,08,11,07,15,20.70
2014,08,11,07,16,20.70
2014,08,11,07,17,20.70
2014,08,11,07,18,20.80
2014,08,11,07,19,20.80
2014,08,11,07,20,20.80
2014,08,11,07,21,20.80
2014,08,11,07,22,20.80
2014,08,11,07,23,20.80
2014,08,11,07,24,20.90
2014,08,11,07,25,20.90
2014,08,11,07,26,20.90
2014,08,11,07,27,20.90
2014,08,11,07,28,20.90
2014,08,11,07,29,20.90
2014,08,11,07,30,20.90
2014,08,11,07,31,20.90
2014,08,11,07,32,20.90
2014,08,11,07,33,20.90
2014,08,11,07,34,21.00
2014,08,11,07,35,21.00
2014,08,11,07,36,21.00
2014,08,11,07,37,21.00
2014,08,11,07,38,21.00
2014,08,11,07,39,21.00
2014,08,11,07,40,21.00
2014,08,11,07,41,21.00
2014,08,11,07,42,21.00
2014,08,11,07,43,21.00
2014,08,11,07,44,21.00
2014,08,11,07,45,21.10
2014,08,11,07,46,21.10
2014,08,11,07,47,21.10
2014,08,11,07,48,21.10
2014,08,11,07,49,21.10
2014,08,11,07,50,21.10
2014,08,11,07,51,21.20
2014,08,11,07,52,21.20
2014,08,11,07,53,21.20
2014,08,11,07,54,21.20
2014,08,11,07,55,21.20
2014,08,11,07,56,21.30
2014,08,11,07,57,21.30
2014,08,11,07,58,21.30
2014,08,11,07,59,21.30
2014,08,11,08,00,21.40
2014,08,11,08,01,21.40
2014,08,11,08,02,21.40
2014,08,11,08,03,21.50
2014,08,11,08,04,21.50
2014,08,11,08,05,21.50
2014,08,11,08,06,21.60
2014,08,11,08,07,21.60
2014,08,11,08,08,21.60
2014,08,11,08,09,21.60
2014,08,11,08,10,21.60
2014,08,11,08,11,21.60
2014,08,11,08,12,21.60
2014,08,11,08,13,21.60
2014,08,11,08,14,21.60
2014,08,11,08,15,21.70
2014,08,11,08,16,21.70
2014,08,11,08,17,21.70
2014,08,11,08,18,21.70
2014,08,11,08,19,21.70
2014,08,11,08,20,21.70
2014,08,11,08,21,21.70
2014,08,11,08,22,21.80
2014,08,11,08,23,21.80
2014,08,11,08,24,21.80
2014,08,11,08,25,21.80
2014,08,11,08,26,21.80
2014,08,11,08,27,21.80
2014,08,11,08,28,21.80
2014,08,11,08,29,21.90
2014,08,11,08,30,21.90
2014,08,11,08,31,21.90
2014,08,11,08,32,21.90
2014,08,11,08,33,22.00
2014,08,11,08,34,22.10
2014,08,11,08,35,22.10
2014,08,11,08,36,22.10
2014,08,11,08,37,22.10
2014,08,11,08,38,22.10
2014,08,11,08,39,22.20
2014,08,11,08,40,22.20
2014,08,11,08,41,22.20
2014,08,11,08,42,22.20
2014,08,11,08,43,22.30
2014,08,11,08,44,22.30
2014,08,11,08,45,22.30
2014,08,11,08,46,22.40
2014,08,11,08,47,22.40
2014,08,11,08,48,22.40
2014,08,11,08,49,22.40
2014,08,11,08,50,22.50
2014,08,11,08,51,22.50
2014,08,11,08,52,22.50
2014,08,11,08,53,22.60
2014,08,11,08,54,22.60
2014,08,11,08,55,22.50
2014,08,11,08,56,22.50
2014,08,11,08,57,22.50
2014,08,11,08,58,22.50
2014,08,11,08,59,22.60
2014,08,11,09,00,22.60
2014,08,11,09,01,22.60
2014,08,11,09,02,22.60
2014,08,11,09,03,22.60
2014,08,11,09,04,22.60
2014,08,11,09,05,22.60
2014,08,11,09,06,22.70
2014,08,11,09,07,22.70
2014,08,11,09,08,22.70
2014,08,11,09,09,22.80
2014,08,11,09,10,22.80
2014,08,11,09,11,22.80
2014,08,11,09,12,22.90
2014,08,11,09,13,22.90
2014,08,11,09,14,23.00
2014,08,11,09,15,23.00
2014,08,11,09,16,23.00
2014,08,11,09,17,23.00
2014,08,11,09,18,23.10
2014,08,11,09,19,23.10
2014,08,11,09,20,23.10
2014,08,11,09,21,23.10
2014,08,11,09,22,23.10
2014,08,11,09,23,23.10
2014,08,11,09,24,23.10
2014,08,11,09,25,23.20
2014,08,11,09,26,23.20
2014,08,11,09,27,23.20
2014,08,11,09,28,23.10
2014,08,11,09,29,23.10
2014,08,11,09,30,23.20
2014,08,11,09,31,23.20
2014,08,11,09,32,23.20
2014,08,11,09,33,23.30
2014,08,11,09,34,23.30
2014,08,11,09,35,23.40
2014,08,11,09,36,23.40
2014,08,11,09,37,23.50
2014,08,11,09,38,23.50
2014,08,11,09,39,23.60
2014,08,11,09,40,23.60
2014,08,11,09,41,23.60
2014,08,11,09,42,23.60
2014,08,11,09,43,23.60
2014,08,11,09,44,23.60
2014,08,11,09,45,23.60
2014,08,11,09,46,23.60
2014,08,11,09,47,23.60
2014,08,11,09,48,23.60
2014,08,11,09,49,23.60
2014,08,11,09,50,23.70
2014,08,11,09,51,23.70
2014,08,11,09,52,23.70
2014,08,11,09,53,23.60
2014,08,11,09,54,23.60
2014,08,11,09,55,23.40
2014,08,11,09,56,23.40
2014,08,11,09,57,23.30
2014,08,11,09,58,23.20
2014,08,11,09,59,23.10
2014,08,11,10,00,23.10
2014,08,11,10,01,23.10
2014,08,11,10,02,23.10
2014,08,11,10,03,23.00
2014,08,11,10,04,23.00
2014,08,11,10,05,23.00
2014,08,11,10,06,22.90
2014,08,11,10,07,22.90
2014,08,11,10,08,22.90
2014,08,11,10,09,22.90
2014,08,11,10,10,22.90
2014,08,11,10,11,22.90
2014,08,11,10,12,22.80
2014,08,11,10,13,22.80
2014,08,11,10,14,22.90
2014,08,11,10,15,22.90
2014,08,11,10,16,23.00
2014,08,11,10,17,23.10
2014,08,11,10,18,23.10
2014,08,11,10,19,23.10
2014,08,11,10,20,23.10
2014,08,11,10,21,23.20
2014,08,11,10,22,23.20
2014,08,11,10,23,23.20
2014,08,11,10,24,23.20
2014,08,11,10,25,23.20
2014,08,11,10,26,23.20
2014,08,11,10,27,23.20
2014,08,11,10,28,23.20
2014,08,11,10,29,23.10
2014,08,11,10,30,23.00
2014,08,11,10,31,23.00
2014,08,11,10,32,22.90
2014,08,11,10,33,23.00
2014,08,11,10,34,23.00
2014,08,11,10,35,23.00
2014,08,11,10,36,23.00
2014,08,11,10,37,22.90
2014,08,11,10,38,22.80
2014,08,11,10,39,22.80
2014,08,11,10,40,22.80
2014,08,11,10,41,22.70
2014,08,11,10,42,22.60
2014,08,11,10,43,22.60
2014,08,11,10,44,22.60
2014,08,11,10,45,22.60
2014,08,11,10,46,22.60
2014,08,11,10,47,22.50
2014,08,11,10,48,22.50
2014,08,11,10,49,22.50
2014,08,11,10,50,22.50
2014,08,11,10,51,22.50
2014,08,11,10,52,22.60
2014,08,11,10,53,22.70
2014,08,11,10,54,22.80
2014,08,11,10,55,22.90
2014,08,11,10,56,23.00
2014,08,11,10,57,23.10
2014,08,11,10,58,23.10
2014,08,11,10,59,23.10
2014,08,11,11,00,23.20
2014,08,11,11,01,23.20
2014,08,11,11,02,23.20
2014,08,11,11,03,23.30
2014,08,11,11,04,23.20
2014,08,11,11,05,23.20
2014,08,11,11,06,23.20
2014,08,11,11,07,23.20
2014,08,11,11,08,23.20
2014,08,11,11,09,23.20
2014,08,11,11,10,23.20
2014,08,11,11,11,23.20
2014,08,11,11,12,23.20
2014,08,11,11,13,23.20
2014,08,11,11,14,23.20
2014,08,11,11,15,23.20
2014,08,11,11,16,23.20
2014,08,11,11,17,23.20
2014,08,11,11,18,23.20
2014,08,11,11,19,23.20
2014,08,11,11,20,23.20
2014,08,11,11,21,23.20
2014,08,11,11,22,23.20
2014,08,11,11,23,23.30
2014,08,11,11,24,23.40
2014,08,11,11,25,23.50
2014,08,11,11,26,23.60
2014,08,11,11,27,23.60
2014,08,11,11,28,23.70
2014,08,11,11,29,23.80
2014,08,11,11,30,23.90
2014,08,11,11,31,23.90
2014,08,11,11,32,23.90
2014,08,11,11,33,23.80
2014,08,11,11,34,23.70
2014,08,11,11,35,23.70
2014,08,11,11,36,23.70
2014,08,11,11,37,23.80
2014,08,11,11,38,23.80
2014,08,11,11,39,23.80
2014,08,11,11,40,23.90
2014,08,11,11,41,24.00
2014,08,11,11,42,24.00
2014,08,11,11,43,24.10
2014,08,11,11,44,24.10
2014,08,11,11,45,24.10
2014,08,11,11,46,24.10
2014,08,11,11,47,24.10
2014,08,11,11,48,24.10
2014,08,11,11,49,24.10
2014,08,11,11,50,24.10
2014,08,11,11,51,24.20
2014,08,11,11,52,24.30
2014,08,11,11,53,24.30
2014,08,11,11,54,24.30
2014,08,11,11,55,24.20
2014,08,11,11,56,24.30
2014,08,11,11,57,24.40
2014,08,11,11,58,24.50
2014,08,11,11,59,24.60
2014,08,11,12,00,24.70
2014,08,11,12,01,24.70
2014,08,11,12,02,24.70
2014,08,11,12,03,24.70
2014,08,11,12,04,24.70
2014,08,11,12,05,24.80
2014,08,11,12,06,24.80
2014,08,11,12,07,24.80
2014,08,11,12,08,24.80
2014,08,11,12,09,24.80
2014,08,11,12,10,24.80
2014,08,11,12,11,24.80
2014,08,11,12,12,24.80
2014,08,11,12,13,24.80
2014,08,11,12,14,24.80
2014,08,11,12,15,24.80
2014,08,11,12,16,24.80
2014,08,11,12,17,24.90
2014,08,11,12,18,24.90
2014,08,11,12,19,25.00
2014,08,11,12,20,25.10
2014,08,11,12,21,25.10
2014,08,11,12,22,25.10
2014,08,11,12,23,25.10
2014,08,11,12,24,25.10
2014,08,11,12,25,25.10
2014,08,11,12,26,25.10
2014,08,11,12,27,25.20
2014,08,11,12,28,25.20
2014,08,11,12,29,25.30
2014,08,11,12,30,25.40
2014,08,11,12,31,25.50
2014,08,11,12,32,25.50
2014,08,11,12,33,25.50
2014,08,11,12,34,25.50
2014,08,11,12,35,25.40
2014,08,11,12,36,25.30
2014,08,11,12,37,25.30
2014,08,11,12,38,25.30
2014,08,11,12,39,25.30
2014,08,11,12,40,25.30
2014,08,11,12,41,25.30
2014,08,11,12,42,25.30
2014,08,11,12,43,25.30
2014,08,11,12,44,25.30
2014,08,11,12,45,25.40
2014,08,11,12,46,25.50
2014,08,11,12,47,25.60
2014,08,11,12,48,25.50
2014,08,11,12,49,25.40
2014,08,11,12,50,25.40
2014,08,11,12,51,25.40
2014,08,11,12,52,25.40
2014,08,11,12,53,25.40
2014,08,11,12,54,25.40
2014,08,11,12,55,25.40
2014,08,11,12,56,25.40
2014,08,11,12,57,25.50
2014,08,11,12,58,25.50
2014,08,11,12,59,25.50
2014,08,11,13,00,25.50
2014,08,11,13,01,25.40
2014,08,11,13,02,25.40
2014,08,11,13,03,25.30
2014,08,11,13,04,25.30
2014,08,11,13,05,25.40
2014,08,11,13,06,25.50
2014,08,11,13,07,25.60
2014,08,11,13,08,25.70
2014,08,11,13,09,25.80
2014,08,11,13,10,25.90
2014,08,11,13,11,25.90
2014,08,11,13,12,25.90
2014,08,11,13,13,25.90
2014,08,11,13,14,25.90
2014,08,11,13,15,25.90
2014,08,11,13,16,25.90
2014,08,11,13,17,25.90
2014,08,11,13,18,25.90
2014,08,11,13,19,25.90
2014,08,11,13,20,25.80
2014,08,11,13,21,25.80
2014,08,11,13,22,25.80
2014,08,11,13,23,25.90
2014,08,11,13,24,25.90
2014,08,11,13,25,25.90
2014,08,11,13,26,25.90
2014,08,11,13,27,25.90
2014,08,11,13,28,25.90
2014,08,11,13,29,25.90
2014,08,11,13,30,25.90
2014,08,11,13,31,25.80
2014,08,11,13,32,25.80
2014,08,11,13,33,25.90
2014,08,11,13,34,25.90
2014,08,11,13,35,25.90
2014,08,11,13,36,25.90
2014,08,11,13,37,26.00
2014,08,11,13,38,26.10
2014,08,11,13,39,26.10
2014,08,11,13,40,26.10
2014,08,11,13,41,26.20
2014,08,11,13,42,26.20
2014,08,11,13,43,26.10
2014,08,11,13,44,26.10
2014,08,11,13,45,26.10
2014,08,11,13,46,26.10
2014,08,11,13,47,26.10
2014,08,11,13,48,26.00
2014,08,11,13,49,25.90
2014,08,11,13,50,26.00
2014,08,11,13,51,26.00
2014,08,11,13,52,26.10
2014,08,11,13,53,26.20
2014,08,11,13,54,26.20
2014,08,11,13,55,26.30
2014,08,11,13,56,26.40
2014,08,11,13,57,26.50
2014,08,11,13,58,26.50
2014,08,11,13,59,26.50
2014,08,11,14,00,26.50
2014,08,11,14,01,26.40
2014,08,11,14,02,26.40
2014,08,11,14,03,26.20
2014,08,11,14,04,26.10
2014,08,11,14,05,26.10
2014,08,11,14,06,26.00
2014,08,11,14,07,26.10
2014,08,11,14,08,26.10
2014,08,11,14,09,26.10
2014,08,11,14,10,26.20
2014,08,11,14,11,26.20
2014,08,11,14,12,26.30
2014,08,11,14,13,26.40
2014,08,11,14,14,26.40
2014,08,11,14,15,26.40
2014,08,11,14,16,26.50
2014,08,11,14,17,26.50
2014,08,11,14,18,26.50
2014,08,11,14,19,26.60
2014,08,11,14,20,26.60
2014,08,11,14,21,26.60
2014,08,11,14,22,26.60
2014,08,11,14,23,26.50
2014,08,11,14,24,26.40
2014,08,11,14,25,26.30
2014,08,11,14,26,26.30
2014,08,11,14,27,26.30
2014,08,11,14,28,26.20
2014,08,11,14,29,26.30
2014,08,11,14,30,26.30
2014,08,11,14,31,26.40
2014,08,11,14,32,26.40
2014,08,11,14,33,26.40
2014,08,11,14,34,26.40
2014,08,11,14,35,26.50
2014,08,11,14,36,26.50
2014,08,11,14,37,26.60
2014,08,11,14,38,26.60
2014,08,11,14,39,26.60
2014,08,11,14,40,26.60
2014,08,11,14,41,26.60
2014,08,11,14,42,26.70
2014,08,11,14,43,26.70
2014,08,11,14,44,26.70
2014,08,11,14,45,26.80
2014,08,11,14,46,26.80
2014,08,11,14,47,26.80
2014,08,11,14,48,26.80
2014,08,11,14,49,26.80
2014,08,11,14,50,26.80
2014,08,11,14,51,26.70
2014,08,11,14,52,26.80
2014,08,11,14,53,26.80
2014,08,11,14,54,26.90
2014,08,11,14,55,26.90
2014,08,11,14,56,26.80
2014,08,11,14,57,26.90
2014,08,11,14,58,26.90
2014,08,11,14,59,26.90
2014,08,11,15,00,27.00
2014,08,11,15,01,27.10
2014,08,11,15,02,27.10
2014,08,11,15,03,27.10
2014,08,11,15,04,27.10
2014,08,11,15,05,27.10
2014,08,11,15,06,27.10
2014,08,11,15,07,27.10
2014,08,11,15,08,27.10
2014,08,11,15,09,27.10
2014,08,11,15,10,27.10
2014,08,11,15,11,27.00
2014,08,11,15,12,26.90
2014,08,11,15,13,26.90
2014,08,11,15,14,27.00
2014,08,11,15,15,27.00
2014,08,11,15,16,27.10
2014,08,11,15,17,27.20
2014,08,11,15,18,27.20
2014,08,11,15,19,27.30
2014,08,11,15,20,27.20
2014,08,11,15,21,27.20
2014,08,11,15,22,27.10
2014,08,11,15,23,27.00
2014,08,11,15,24,26.90
2014,08,11,15,25,26.80
2014,08,11,15,26,26.80
2014,08,11,15,27,26.80
2014,08,11,15,28,26.90
2014,08,11,15,29,27.00
2014,08,11,15,30,27.00
2014,08,11,15,31,27.10
2014,08,11,15,32,27.10
2014,08,11,15,33,27.20
2014,08,11,15,34,27.20
2014,08,11,15,35,27.20
2014,08,11,15,36,27.20
2014,08,11,15,37,27.10
2014,08,11,15,38,27.10
2014,08,11,15,39,27.00
2014,08,11,15,40,26.90
2014,08,11,15,41,26.80
2014,08,11,15,42,26.80
2014,08,11,15,43,26.80
2014,08,11,15,44,26.80
2014,08,11,15,45,26.80
2014,08,11,15,46,26.80
2014,08,11,15,47,26.80
2014,08,11,15,48,26.80
2014,08,11,15,49,26.80
2014,08,11,15,50,26.80
2014,08,11,15,51,26.80
2014,08,11,15,52,26.80
2014,08,11,15,53,26.80
2014,08,11,15,54,26.80
2014,08,11,15,55,26.90
2014,08,11,15,56,26.90
2014,08,11,15,57,26.90
2014,08,11,15,58,26.90
2014,08,11,15,59,27.00
2014,08,11,16,00,27.00
2014,08,11,16,01,27.00
2014,08,11,16,02,27.10
2014,08,11,16,03,27.10
2014,08,11,16,04,27.10
2014,08,11,16,05,27.10
2014,08,11,16,06,27.20
2014,08,11,16,07,27.20
2014,08,11,16,08,27.30
2014,08,11,16,09,27.30
2014,08,11,16,10,27.40
2014,08,11,16,11,27.40
2014,08,11,16,12,27.40
2014,08,11,16,13,27.40
2014,08,11,16,14,27.40
2014,08,11,16,15,27.40
2014,08,11,16,16,27.50
2014,08,11,16,17,27.50
2014,08,11,16,18,27.50
2014,08,11,16,19,27.60
2014,08,11,16,20,27.60
2014,08,11,16,21,27.60
2014,08,11,16,22,27.60
2014,08,11,16,23,27.60
2014,08,11,16,24,27.60
2014,08,11,16,25,27.60
2014,08,11,16,26,27.60
2014,08,11,16,27,27.60
2014,08,11,16,28,27.60
2014,08,11,16,29,27.60
2014,08,11,16,30,27.70
2014,08,11,16,31,27.70
2014,08,11,16,32,27.70
2014,08,11,16,33,27.70
2014,08,11,16,34,27.80
2014,08,11,16,35,27.80
2014,08,11,16,36,27.80
2014,08,11,16,37,27.80
2014,08,11,16,38,27.90
2014,08,11,16,39,27.90
2014,08,11,16,40,27.90
2014,08,11,16,41,27.90
2014,08,11,16,42,27.90
2014,08,11,16,43,27.90
2014,08,11,16,44,28.00
2014,08,11,16,45,28.00
2014,08,11,16,46,28.10
2014,08,11,16,47,28.10
2014,08,11,16,48,28.10
2014,08,11,16,49,28.10
2014,08,11,16,50,28.20
2014,08,11,16,51,28.20
2014,08,11,16,52,28.20
2014,08,11,16,53,28.20
2014,08,11,16,54,28.20
2014,08,11,16,55,28.20
2014,08,11,16,56,28.20
2014,08,11,16,57,28.30
2014,08,11,16,58,28.30
2014,08,11,16,59,28.30
2014,08,11,17,00,28.30
2014,08,11,17,01,28.30
2014,08,11,17,02,28.30
2014,08,11,17,03,28.30
2014,08,11,17,04,28.30
2014,08,11,17,05,28.30
2014,08,11,17,06,28.30
2014,08,11,17,07,28.30
2014,08,11,17,08,28.30
2014,08,11,17,09,28.30
2014,08,11,17,10,28.30
2014,08,11,17,11,28.30
2014,08,11,17,12,28.30
2014,08,11,17,13,28.30
2014,08,11,17,14,28.40
2014,08,11,17,15,28.40
2014,08,11,17,16,28.40
2014,08,11,17,17,28.40
2014,08,11,17,18,28.40
2014,08,11,17,19,28.40